When you browse on this site, cookies collect data to enhance your experience and personalize the content and advertising you see.
Visit our Privacy Policy to learn more. By continuing to use the site, you agree to this use of cookies and data.
  • En España
  • Lista de países
  • Para 7 días
  • Temperatura del agua
  • El tiempo en el mapa
  • Informadores
  • user-avatar
    Iniciar sesión

    Tiempo cada hora Lubumbashi

    Hoy, 18 Febrero, Martes

    Tiempo Temperatura Precipitaciones Viento Presión Humedad
    00:00 +26°C° 0 mm 7 mps 719 mmHg 17%
    01:00 +26°C° 0 mm 7 mps 719 mmHg 17%
    02:00 +24°C° 0 mm 8 mps 719 mmHg 17%
    03:00 +23°C° 0 mm 7 mps 719 mmHg 18%
    04:00 +23°C° 0 mm 7 mps 719 mmHg 19%
    05:00 +22°C° 0 mm 6 mps 719 mmHg 19%
    06:00 +23°C° 0 mm 7 mps 720 mmHg 19%
    07:00 +23°C° 0 mm 8 mps 720 mmHg 19%
    08:00 +24°C° 0 mm 9 mps 721 mmHg 19%
    09:00 +27°C° 0 mm 9 mps 721 mmHg 16%
    10:00 +31°C° 0 mm 8 mps 721 mmHg 14%
    11:00 +34°C° 0 mm 8 mps 721 mmHg 12%
    12:00 +36°C° 0 mm 7 mps 721 mmHg 11%
    13:00 +39°C° 0 mm 7 mps 720 mmHg 10%
    14:00 +40°C° 0 mm 6 mps 719 mmHg 10%
    15:00 +40°C° 0 mm 5 mps 719 mmHg 10%
    16:00 +40°C° 0 mm 5 mps 718 mmHg 10%
    17:00 +40°C° 0 mm 5 mps 718 mmHg 10%
    18:00 +37°C° 0 mm 5 mps 718 mmHg 12%
    19:00 +34°C° 0 mm 5 mps 718 mmHg 14%
    20:00 +32°C° 0 mm 5 mps 718 mmHg 16%
    21:00 +30°C° 0 mm 5 mps 719 mmHg 16%
    22:00 +29°C° 0 mm 6 mps 719 mmHg 16%
    23:00 +28°C° 0 mm 6 mps 719 mmHg 17%

    Mañana, 19 Febrero, Miércoles

    Tiempo Temperatura Precipitaciones Viento Presión Humedad
    00:00 +27°C° 0 mm 6 mps 719 mmHg 17%
    01:00 +27°C° 0 mm 6 mps 719 mmHg 17%
    02:00 +26°C° 0 mm 7 mps 719 mmHg 18%
    03:00 +24°C° 0 mm 7 mps 719 mmHg 19%
    04:00 +23°C° 0 mm 7 mps 719 mmHg 20%
    05:00 +22°C° 0 mm 7 mps 719 mmHg 21%
    06:00 +23°C° 0 mm 7 mps 719 mmHg 20%
    07:00 +24°C° 0 mm 8 mps 720 mmHg 20%
    08:00 +24°C° 0 mm 9 mps 720 mmHg 19%
    09:00 +28°C° 0 mm 9 mps 720 mmHg 17%
    10:00 +32°C° 0 mm 9 mps 721 mmHg 14%
    11:00 +34°C° 0 mm 9 mps 721 mmHg 12%
    12:00 +37°C° 0 mm 8 mps 720 mmHg 11%
    13:00 +39°C° 0 mm 7 mps 720 mmHg 11%
    14:00 +41°C° 0 mm 7 mps 719 mmHg 10%
    15:00 +40°C° 0 mm 7 mps 718 mmHg 10%
    16:00 +40°C° 0 mm 6 mps 718 mmHg 10%
    17:00 +40°C° 0 mm 6 mps 718 mmHg 10%
    18:00 +38°C° 0 mm 6 mps 718 mmHg 12%
    19:00 +34°C° 0 mm 6 mps 718 mmHg 14%
    20:00 +32°C° 0 mm 7 mps 718 mmHg 15%
    21:00 +30°C° 0 mm 7 mps 719 mmHg 16%
    22:00 +29°C° 0 mm 7 mps 719 mmHg 17%
    23:00 +28°C° 0 mm 8 mps 719 mmHg 17%

    Pasado mañana, 20 Febrero, Jueves

    Tiempo Temperatura Precipitaciones Viento Presión Humedad
    00:00 +27°C° 0 mm 8 mps 719 mmHg 18%
    01:00 +26°C° 0 mm 9 mps 719 mmHg 19%
    02:00 +24°C° 0 mm 9 mps 719 mmHg 20%
    03:00 +24°C° 0 mm 9 mps 719 mmHg 21%
    04:00 +23°C° 0 mm 9 mps 719 mmHg 21%
    05:00 +22°C° 0 mm 8 mps 719 mmHg 22%
    06:00 +23°C° 0 mm 9 mps 720 mmHg 22%
    07:00 +23°C° 0 mm 10 mps 720 mmHg 22%
    08:00 +23°C° 0 mm 10 mps 721 mmHg 22%
    09:00 +26°C° 0 mm 10 mps 721 mmHg 20%
    10:00 +28°C° 0 mm 10 mps 721 mmHg 18%
    11:00 +31°C° 0 mm 10 mps 722 mmHg 16%
    12:00 +33°C° 0 mm 9 mps 721 mmHg 14%
    13:00 +35°C° 0 mm 8 mps 720 mmHg 13%
    14:00 +38°C° 0 mm 8 mps 719 mmHg 12%
    15:00 +38°C° 0 mm 7 mps 719 mmHg 12%
    16:00 +38°C° 0 mm 7 mps 718 mmHg 12%
    17:00 +36°C° 0 mm 7 mps 718 mmHg 12%
    18:00 +34°C° 0 mm 6 mps 718 mmHg 14%
    19:00 +32°C° 0 mm 5 mps 718 mmHg 16%
    20:00 +28°C° 0 mm 5 mps 718 mmHg 18%
    21:00 +28°C° 0 mm 5 mps 719 mmHg 18%
    22:00 +27°C° 0 mm 6 mps 719 mmHg 18%
    23:00 +26°C° 0 mm 7 mps 719 mmHg 19%

    21 Febrero, Viernes

    Tiempo Temperatura Precipitaciones Viento Presión Humedad
    00:00 +24°C° 0 mm 7 mps 719 mmHg 19%
    01:00 +23°C° 0 mm 7 mps 719 mmHg 19%
    02:00 +22°C° 0 mm 7 mps 719 mmHg 19%
    03:00 +22°C° 0 mm 7 mps 719 mmHg 18%
    04:00 +21°C° 0 mm 7 mps 719 mmHg 18%
    05:00 +21°C° 0 mm 7 mps 719 mmHg 18%
    06:00 +21°C° 0 mm 8 mps 720 mmHg 17%
    07:00 +22°C° 0 mm 8 mps 720 mmHg 16%
    08:00 +22°C° 0 mm 9 mps 721 mmHg 16%
    15:00 +39°C° 0 mm 7 mps 719 mmHg 9%
    16:00 +39°C° 0 mm 6 mps 719 mmHg 9%
    17:00 +38°C° 0 mm 6 mps 718 mmHg 9%
    18:00 +35°C° 0 mm 6 mps 718 mmHg 11%
    19:00 +33°C° 0 mm 5 mps 719 mmHg 12%
    20:00 +29°C° 0 mm 5 mps 719 mmHg 14%
    21:00 +28°C° 0 mm 5 mps 719 mmHg 14%
    22:00 +27°C° 0 mm 6 mps 719 mmHg 13%
    23:00 +26°C° 0 mm 6 mps 720 mmHg 13%

    22 Febrero, Sábado

    Tiempo Temperatura Precipitaciones Viento Presión Humedad
    00:00 +24°C° 0 mm 7 mps 720 mmHg 13%
    01:00 +23°C° 0 mm 7 mps 719 mmHg 13%
    02:00 +23°C° 0 mm 7 mps 719 mmHg 13%
    03:00 +22°C° 0 mm 7 mps 719 mmHg 14%
    04:00 +21°C° 0 mm 7 mps 719 mmHg 14%
    05:00 +21°C° 0 mm 7 mps 719 mmHg 15%
    06:00 +21°C° 0 mm 8 mps 720 mmHg 14%
    07:00 +22°C° 0 mm 9 mps 721 mmHg 14%
    08:00 +22°C° 0 mm 9 mps 722 mmHg 14%
    09:00 +26°C° 0 mm 9 mps 722 mmHg 12%
    10:00 +29°C° 0 mm 9 mps 722 mmHg 10%
    11:00 +32°C° 0 mm 9 mps 723 mmHg 9%
    12:00 +34°C° 0 mm 8 mps 722 mmHg 8%
    13:00 +35°C° 0 mm 8 mps 721 mmHg 7%
    14:00 +38°C° 0 mm 7 mps 720 mmHg 6%
    15:00 +38°C° 0 mm 7 mps 720 mmHg 6%
    16:00 +36°C° 0 mm 7 mps 719 mmHg 6%
    17:00 +36°C° 0 mm 7 mps 719 mmHg 7%
    18:00 +34°C° 0 mm 6 mps 719 mmHg 8%
    19:00 +30°C° 0 mm 6 mps 719 mmHg 9%
    20:00 +28°C° 0 mm 5 mps 719 mmHg 11%
    21:00 +27°C° 0 mm 6 mps 719 mmHg 11%
    22:00 +26°C° 0 mm 6 mps 720 mmHg 11%
    23:00 +24°C° 0 mm 6 mps 720 mmHg 11%

    23 Febrero, Domingo

    Tiempo Temperatura Precipitaciones Viento Presión Humedad
    00:00 +23°C° 0 mm 6 mps 720 mmHg 12%
    01:00 +22°C° 0 mm 6 mps 719 mmHg 12%
    02:00 +21°C° 0 mm 7 mps 719 mmHg 13%
    03:00 +21°C° 0 mm 7 mps 719 mmHg 13%
    04:00 +20°C° 0 mm 7 mps 719 mmHg 14%
    05:00 +20°C° 0 mm 8 mps 719 mmHg 14%
    06:00 +20°C° 0 mm 8 mps 720 mmHg 14%
    07:00 +21°C° 0 mm 9 mps 721 mmHg 15%
    08:00 +21°C° 0 mm 10 mps 721 mmHg 15%
    09:00 +24°C° 0 mm 10 mps 722 mmHg 14%
    10:00 +27°C° 0 mm 9 mps 722 mmHg 12%
    11:00 +29°C° 0 mm 9 mps 722 mmHg 11%
    12:00 +32°C° 0 mm 9 mps 721 mmHg 10%
    13:00 +34°C° 0 mm 8 mps 721 mmHg 9%
    14:00 +35°C° 0 mm 8 mps 720 mmHg 8%
    15:00 +35°C° 0 mm 7 mps 719 mmHg 8%
    16:00 +35°C° 0 mm 7 mps 719 mmHg 8%
    17:00 +35°C° 0 mm 7 mps 719 mmHg 8%
    18:00 +32°C° 0 mm 6 mps 719 mmHg 10%
    19:00 +29°C° 0 mm 6 mps 719 mmHg 11%
    20:00 +27°C° 0 mm 5 mps 719 mmHg 13%
    21:00 +26°C° 0 mm 6 mps 719 mmHg 14%
    22:00 +24°C° 0 mm 6 mps 719 mmHg 14%
    23:00 +23°C° 0 mm 7 mps 720 mmHg 15%
    Mostrar más